Content
SEND FEEDBACK

Daily
Averages
Monthly
Summary
Canada

VANCOUVER, BRITISH COLUMBIA


Home > North America > Canada > British Columbia
Elevation: 2 meters     Latitude: 49 11N     Longitude: 123 10W

WEATHER
 
SELECT A DAY
Number of Records: 249,213;   Date Range: 5/15/97 - 4/23/14
 
SHARE

PRINT THIS DATA

[ ← Previous Day ]
WEATHER ALMANAC - 18 SEPTEMBER, 2013
[ Next Day → ]
[ °F ]   °C
Weather ElementAverageHighLow
Temperature14.8 °C19 °C (3:35 pm)11 °C (7:15 am)
Dewpoint10.8 °C12 °C (9:15 am)10 °C (6:55 am)
Humidity78 %94 % (6:15 am)56 % (3:55 pm)
Barometer1016.3 hPa1017.6 hPa (12:35 pm)1012.5 hPa (12:35 am)
Wind Speed6.3 km/h16.7 km/h (4:15 pm)
Weather ElementAverage
Visibility16.1 km
Wind DirectionESE (114.5 °)

Weather ElementTotal
Precipitation---
Heating Degree Days3.3 (Base 18.3)
Growing Degree Days5 (Base 10)
Averaged from 71 records on 18 September, 2013
WEATHER CONDITIONS BREAKOUT
WIND DIRECTION BREAKOUT
WEATHER BY HOUR - 18 SEPTEMBER, 2013
[ °F ]   °C
Local TimeTemperatureDewpointHumidityBarometerVisibilityWind DirectionWind SpeedGust SpeedPrecipitationEventsConditions
12:35 AM13 °C11 °C88 %1012.5 hPa16.1 kmSouth (190°)9.3 km/hMostly Cloudy
12:55 AM13 °C11 °C88 %1012.5 hPa16.1 kmSouth (190°)9.3 km/hMostly Cloudy
1:15 AM13 °C11 °C88 %1012.9 hPa16.1 kmSouth (190°)9.3 km/hMostly Cloudy
1:35 AM13 °C11 °C88 %1013.2 hPa16.1 kmCalmMostly Cloudy
1:55 AM13 °C11 °C88 %1013.2 hPa16.1 kmSouth (190°)5.6 km/hMostly Cloudy
2:15 AM13 °C11 °C88 %1013.5 hPa16.1 kmCalmScattered Clouds
2:35 AM13 °C11 °C88 %1013.5 hPa16.1 kmCalmMostly Cloudy
2:55 AM13 °C11 °C88 %1013.5 hPa16.1 kmCalmMostly Cloudy
3:15 AM13 °C11 °C88 %1013.5 hPa16.1 kmNorthScattered Clouds
3:35 AM13 °C11 °C88 %1013.9 hPa16.1 kmCalmScattered Clouds
3:55 AM13 °C11 °C88 %1013.9 hPa16.1 kmCalmScattered Clouds
4:15 AM13 °C11 °C88 %1014.2 hPa16.1 kmCalmPartly Cloudy
4:35 AM13 °C11 °C88 %1014.2 hPa16.1 kmSouth (190°)5.6 km/hPartly Cloudy
4:55 AM13 °C11 °C88 %1014.6 hPa16.1 kmSouth (190°)7.4 km/hPartly Cloudy
5:15 AM13 °C11 °C88 %1014.6 hPa16.1 kmCalmPartly Cloudy
5:35 AM13 °C11 °C88 %1014.6 hPa16.1 kmCalmClear
5:55 AM13 °C11 °C88 %1014.6 hPa16.1 kmSouth (180°)5.6 km/hPartly Cloudy
6:15 AM12 °C11 °C94 %1014.6 hPa16.1 kmCalmClear
6:35 AM12 °C11 °C94 %1014.9 hPa16.1 kmSouth (170°)5.6 km/hPartly Cloudy
6:55 AM12 °C10 °C88 %1015.2 hPa16.1 kmCalmClear
7:15 AM11 °C10 °C94 %1015.2 hPa16.1 kmCalmClear
7:35 AM11 °C10 °C94 %1015.6 hPa16.1 kmCalmClear
7:55 AM12 °C10 °C88 %1015.6 hPa16.1 kmCalmClear
8:15 AM12 °C10 °C88 %1015.9 hPa16.1 kmCalmClear
8:35 AM13 °C11 °C88 %1015.9 hPa16.1 kmCalmClear
8:55 AM14 °C11 °C82 %1016.3 hPa16.1 kmSouth (190°)9.3 km/hScattered Clouds
9:15 AM14 °C12 °C88 %1016.3 hPa16.1 kmCalmMostly Cloudy
9:35 AM14 °C12 °C88 %1016.6 hPa16.1 kmSouth (190°)7.4 km/hMostly Cloudy
9:55 AM14 °C12 °C88 %1016.6 hPa16.1 kmCalmMostly Cloudy
10:15 AM15 °C12 °C82 %1016.6 hPa16.1 kmCalmScattered Clouds
10:35 AM15 °C12 °C82 %1016.6 hPa16.1 kmSouth (190°)7.4 km/hClear
10:55 AM15 °C12 °C82 %1016.9 hPa16.1 kmCalmPartly Cloudy
11:15 AM15 °C12 °C82 %1016.9 hPa16.1 kmSW (220°)7.4 km/hClear
11:35 AM16 °C12 °C77 %1016.9 hPa16.1 kmSSW (200°)5.6 km/hClear
11:55 AM17 °C11 °C68 %1017.3 hPa16.1 kmNorth (10°)5.6 km/hClear
12:15 PM17 °C11 °C68 %1017.3 hPa16.1 kmSW (220°)9.3 km/hClear
12:35 PM17 °C12 °C72 %1017.6 hPa16.1 kmCalmClear
12:55 PM17 °C12 °C72 %1017.3 hPa16.1 kmSouth (180°)9.3 km/hClear
1:15 PM17 °C12 °C72 %1017.6 hPa16.1 kmSSW (200°)9.3 km/hPartly Cloudy
1:35 PM17 °C12 °C72 %1017.6 hPa16.1 kmSW (230°)7.4 km/hScattered Clouds
1:55 PM18 °C11 °C64 %1017.3 hPa16.1 kmSSW (210°)11.1 km/hPartly Cloudy
2:15 PM18 °C11 °C64 %1017.3 hPa16.1 kmSSW (200°)11.1 km/hClear
2:35 PM18 °C10 °C59 %1017.3 hPa16.1 kmSSW (200°)14.8 km/hClear
2:55 PM18 °C12 °C68 %1017.3 hPa16.1 kmSouth (190°)14.8 km/hClear
3:15 PM18 °C11 °C64 %1017.3 hPa16.1 kmSSW (200°)14.8 km/hClear
3:35 PM19 °C11 °C60 %1017.3 hPa16.1 kmSouth (170°)7.4 km/hClear
3:55 PM19 °C10 °C56 %1017.3 hPa16.1 kmSSW (200°)14.8 km/hClear
4:15 PM19 °C11 °C60 %1017.3 hPa16.1 kmSSW (210°)16.7 km/hClear
4:35 PM19 °C10 °C56 %1017.3 hPa16.1 kmSSW (210°)14.8 km/hClear
4:55 PM19 °C10 °C56 %1016.9 hPa16.1 kmSSW (200°)14.8 km/hClear
5:15 PM18 °C11 °C64 %1016.9 hPa16.1 kmSSW (200°)14.8 km/hClear
5:35 PM17 °C11 °C68 %1017.3 hPa16.1 kmSouth (190°)16.7 km/hClear
5:55 PM17 °C10 °C63 %1017.3 hPa16.1 kmSouth (190°)13 km/hClear
6:15 PM17 °C10 °C63 %1017.3 hPa16.1 kmSouth (180°)9.3 km/hClear
6:35 PM16 °C10 °C68 %1017.3 hPa16.1 kmSouth (190°)14.8 km/hClear
6:55 PM16 °C10 °C68 %1016.9 hPa16.1 kmSouth (190°)13 km/hClear
7:15 PM16 °C10 °C68 %1017.3 hPa16.1 kmSouth (190°)11.1 km/hClear
7:35 PM15 °C10 °C72 %1016.9 hPa16.1 kmSouth (190°)14.8 km/hClear
7:55 PM15 °C10 °C72 %1017.3 hPa16.1 kmSouth (190°)11.1 km/hClear
8:15 PM15 °C11 °C77 %1017.3 hPa16.1 kmSouth (180°)5.6 km/hClear
8:35 PM15 °C11 °C77 %1017.3 hPa16.1 kmSouth (190°)11.1 km/hClear
8:55 PM15 °C10 °C72 %1017.6 hPa16.1 kmSouth (170°)9.3 km/hClear
9:15 PM15 °C10 °C72 %1017.6 hPa16.1 kmSouth (190°)11.1 km/hClear
9:35 PM15 °C10 °C72 %1017.6 hPa16.1 kmSouth (190°)7.4 km/hClear
9:55 PM14 °C10 °C77 %1017.6 hPa16.1 kmSouth (190°)5.6 km/hClear
10:15 PM14 °C10 °C77 %1017.6 hPa16.1 kmCalmClear
10:35 PM14 °C10 °C77 %1017.6 hPa16.1 kmCalmClear
10:55 PM13 °C10 °C82 %1017.6 hPa16.1 kmCalmClear
11:15 PM13 °C10 °C82 %1017.6 hPa16.1 kmCalmClear
11:35 PM13 °C10 °C82 %1017.3 hPa16.1 kmCalmClear
11:55 PM13 °C10 °C82 %1017.3 hPa16.1 kmCalmClear
Hourly data recorded from CZBB, located 0 kilometers away from Vancouver, British Columbia







STORIES FROM OUR PARTNERS